Weather in Lhokseumawe

Indonesia     5°12′08″N   97°06′33″E
temp.,
°C
wind,
m/s
gust,
m/s
humid.,
%
clouds,
%
prec.,
mm/h
press.,
hPa
HPBL,
m
18 may, wed
wed1801:00+26s1185100 1.5 101051
04:00+26s2286100 1.7 100941
07:00+26sse2285100 3.1 1011138
10:00+28ese237396 0.0 1011411
13:00+30ne3367100 0.0 1009667
16:00+28nne3475100 0.5 1008405
19:00+28nnw117574 1.0 1010499
22:00+27s118063 0.0 1012172
19 may, thu
thu1901:00+26s2285100 0.0 1011156
04:00+26s218697 0.0 1010124
07:00+25sse228493 0.0 1011125
10:00+28ese127189 0.0 1012391
13:00+29nne437177 0.0 1010718
16:00+29ne3373100 0.1 1008582
19:00+27nne2279100 0.9 1010272
22:00+27ssw1182100 1.3 1012172
20 may, fri
fri2001:00+26s2286100 1.4 1011169
04:00+26se2288100 0.0 1009177
07:00+25sse2288100 0.0 1010167
10:00+28sse0176100 0.0 1012333
13:00+28n3175100 0.0 1009525
16:00+29nne327386 0.0 1007528
19:00+27n238010 0.4 1009384
22:00+27wsw1281100 0.8 1011302
21 may, sat
sat2101:00+26s218793 0.8 1009151
04:00+25sse2288100 0.0 1008142
07:00+25s228772 0.0 1010148
10:00+28e1276100 0.0 1010365
13:00+29nne4373100 0.0 1008681
16:00+29n437488 0.0 1006607
19:00+28nw117718 0.1 1007390
22:00+27sse1180100 0.0 1008244
22 may, sun
sun2201:00+26se2286100 0.0 1008211
04:00+25sse3388100 0.0 1007172
07:00+25s228297 0.0 1008162
10:00+28e1169100 0.0 1008324
13:00+29n4269100 0.0 1006599
16:00+29n3273100 0.0 1005532
19:00+28n1278100 0.0 1007432
22:00+27se2280100 0.0 1008308